Location: Jesenik
(50.2330°N, 17.2000°E)
Time: 23:42:35
(UTC+02:00)

ISS - Pass Details

Date: 01 April 2019
Orbit: 408 x 410 km, 51.6° (Epoch: 26 April)

Event Time Altitude Azimuth Distance (km) Brightness Sun altitude
Rises 21:45:52 0° 287° (WNW) 2,339 1.2 -21.7°
Reaches altitude 10° 21:48:00 10° 281° (W) 1,475 -0.1 -22.0°
Enters shadow 21:50:19 35° 251° (WSW) 678 -2.5 -22.3°
